GFSGL_925_spd_003.txt.gz
Wind_Speed
5 3 3 6 9 10 12 11 11 11 9 9 10 12 14 13 12 13 14 14 12 11 10 12 11 8 7 7 7 5 8 9 9 15 10 6 9 6 10 9 8 10 11
3 1 2 6 4 6 8 8 8 9 9 10 9 9 10 12 12 11 10 9 8 4 2 2 6 9 9 10 6 6 6 5 8 9 10 8 9 8 9 9 9 7 10
3 2 1 6 4 3 3 5 5 7 10 10 11 10 10 10 11 12 12 13 11 8 5 1 5 8 3 4 3 3 3 2 4 3 8 6 8 9 9 8 8 9 7
3 5 3 5 5 4 4 4 5 8 10 11 12 13 14 15 14 14 14 13 11 7 2 2 5 4 1 1 1 1 4 5 7 6 14 13 10 8 7 8 8 7 5
7 10 6 4 5 7 7 8 7 8 7 9 12 13 14 15 14 13 11 9 8 5 3 4 3 3 2 0 2 3 6 6 4 7 12 11 10 10 6 2 2 4 2
6 7 8 6 6 11 9 10 9 9 7 8 11 13 12 10 10 9 10 10 9 9 8 9 9 8 6 1 2 2 1 2 3 8 7 10 7 5 3 2 2 4 7
9 10 10 8 8 11 12 11 10 9 9 8 8 10 11 7 11 11 9 9 9 8 8 7 8 8 8 8 10 12 13 14 12 14 13 10 8 5 4 0 4 1 2
12 13 13 12 11 10 8 8 8 9 13 19 16 13 13 13 12 12 11 11 11 10 9 7 10 7 7 6 8 12 14 15 15 14 14 12 9 7 5 3 2 4 7
16 15 15 12 7 8 9 9 11 13 18 18 15 13 14 15 14 14 13 14 13 12 12 12 10 11 9 10 10 12 13 14 15 16 15 11 8 7 7 6 3 6 7
10 13 14 17 14 15 15 15 16 19 18 17 16 16 16 14 13 14 11 12 13 14 15 15 14 12 9 10 8 9 10 9 8 8 10 10 8 8 10 8 6 7 9
23 22 22 18 16 13 14 18 17 18 22 22 20 19 19 18 15 10 14 11 11 13 14 15 18 13 12 10 8 10 11 5 5 3 3 3 4 4 4 6 6 7 10
25 25 25 22 19 17 16 18 19 22 21 23 24 20 21 22 22 21 20 18 16 17 17 14 15 12 9 8 8 8 4 2 1 3 3 2 5 7 7 7 5 5 6
31 31 29 28 27 27 28 27 27 24 21 17 21 23 20 19 19 18 17 15 14 13 14 15 16 13 12 12 10 7 8 8 8 8 7 6 6 6 7 5 6 6 9
32 32 30 29 29 27 25 21 20 23 19 17 16 19 17 17 17 16 16 15 14 14 13 13 11 9 9 7 7 7 7 7 6 8 7 6 6 6 6 6 7 7 8
28 27 26 24 24 25 24 21 26 23 21 20 18 14 13 14 11 8 7 6 5 6 7 6 6 5 5 4 5 5 5 5 4 5 5 6 5 6 5 7 6 6 7
29 27 26 25 24 24 25 25 22 20 17 16 16 15 15 15 12 10 10 10 9 6 6 6 5 5 5 5 5 4 4 5 5 5 5 6 7 7 7 8 6 7 7
24 23 21 19 20 23 21 20 21 18 18 18 17 15 13 13 12 13 13 11 6 4 6 7 6 5 5 4 4 4 5 4 3 5 5 6 7 7 8 7 7 7 8
23 22 20 16 13 14 14 15 14 13 13 11 11 11 10 9 8 6 4 3 3 5 6 6 5 3 2 3 4 5 6 7 5 5 6 7 8 8 8 7 7 6 8
18 14 12 11 11 10 10 10 10 9 9 8 9 8 6 9 11 6 3 4 6 5 5 5 4 5 5 6 6 5 5 4 4 6 7 8 8 8 8 8 8 3 5
10 8 11 9 9 8 6 7 6 4 3 4 4 5 7 6 8 3 4 5 5 5 6 5 4 3 5 5 5 5 5 5 5 7 8 8 8 8 9 8 8 8 8
12 8 5 2 6 5 2 1 2 5 3 6 7 4 2 6 4 4 6 6 7 7 7 6 7 6 4 3 5 5 4 5 6 7 9 9 9 9 9 9 8 8 8
9 5 4 7 5 6 5 1 4 3 3 1 5 4 4 3 3 4 5 6 6 6 6 5 6 6 5 5 5 6 6 5 7 8 9 10 10 10 9 9 9 8 9
4 0 4 7 11 7 2 12 7 5 4 4 3 3 2 2 3 3 3 4 5 4 5 5 5 6 5 4 6 6 7 6 6 10 10 10 10 9 10 10 9 9 9
3 4 6 7 10 10 14 6 8 2 2 2 4 2 1 1 2 2 3 4 4 4 4 6 6 6 6 7 7 7 8 2 3 10 10 9 9 9 10 9 9 8 9
2 5 6 6 5 7 7 6 3 4 6 5 4 3 3 2 2 3 3 2 3 4 5 6 6 7 7 8 8 5 3 6 8 12 7 8 8 9 9 9 9 10 9
4 5 7 4 4 4 4 5 5 5 5 5 5 4 4 5 4 3 3 3 5 3 2 7 6 7 6 6 4 4 7 10 7 9 7 5 7 8 9 10 9 10 10

GFSGL_925_spd_006.txt.gz
Wind_Speed
4 4 6 8 9 10 12 14 13 11 10 11 7 8 8 11 14 16 16 16 17 16 14 12 10 13 15 9 8 2 4 6 1 3 5 7 6 7 9 12 13 14 14
4 4 6 4 5 6 8 10 9 9 10 10 11 9 10 12 12 12 12 13 13 11 9 7 7 5 7 8 8 6 4 1 3 9 8 9 8 10 12 8 10 10 12
6 3 2 6 4 2 3 3 6 8 8 9 11 12 13 11 13 15 18 18 16 14 13 11 13 12 12 15 10 12 4 2 2 9 8 9 12 14 12 15 12 9 8
7 4 2 3 4 3 4 4 4 7 7 10 12 14 14 13 13 13 13 11 9 7 5 4 6 11 11 6 12 15 11 11 9 0 11 15 12 9 10 11 10 9 9
7 8 6 5 3 5 6 7 7 8 8 10 12 13 12 13 13 13 12 12 10 8 5 2 1 2 5 3 5 10 15 14 8 7 11 10 11 11 9 7 9 13 10
5 9 12 6 9 8 8 8 8 9 10 11 11 10 9 9 9 7 8 9 9 9 7 6 4 2 4 3 6 6 10 8 9 12 9 8 12 10 5 8 6 5 3
10 7 14 10 10 9 8 8 8 12 16 16 18 17 10 8 8 6 5 8 8 8 8 9 8 10 9 11 8 7 12 18 17 17 20 14 14 12 9 7 7 6 6
7 10 16 13 8 8 8 10 18 21 21 21 20 16 14 11 8 7 8 11 14 14 14 13 13 9 9 12 7 12 16 18 17 16 16 15 11 7 8 5 4 3 5
7 10 16 10 12 15 14 16 20 23 23 23 20 18 17 16 13 15 16 16 14 15 14 12 12 14 13 12 12 17 20 20 19 18 16 13 11 10 8 6 9 8 5
6 11 21 20 21 24 25 25 25 24 23 22 20 18 17 18 14 15 12 15 17 16 19 20 18 15 14 12 16 17 18 16 13 13 13 11 11 12 11 11 7 9 7
21 23 25 22 23 24 26 26 25 24 23 21 21 20 21 19 14 16 18 18 15 15 15 19 19 16 13 12 11 12 11 7 8 6 5 3 4 4 6 8 5 6 11
25 26 25 24 22 20 22 21 21 20 21 22 25 26 24 22 22 20 17 15 14 18 18 18 16 12 12 12 12 10 7 6 3 6 8 2 9 8 12 12 7 7 5
30 30 30 30 26 24 25 25 26 24 25 23 20 20 21 20 20 18 15 14 13 16 15 16 14 14 14 12 9 8 5 4 8 12 12 11 9 8 10 10 5 11 11
30 29 29 29 29 27 26 23 22 19 18 19 19 16 16 16 16 15 17 16 16 16 15 13 12 11 10 9 8 8 10 11 9 10 11 10 8 7 8 8 8 9 10
26 26 26 26 28 26 25 21 22 20 19 20 15 12 13 12 11 10 7 5 6 6 4 4 6 5 6 5 8 8 10 9 9 7 5 6 8 8 8 7 10 9 10
23 23 26 27 26 25 27 27 21 20 19 17 14 12 13 12 11 9 10 10 9 7 9 9 8 9 10 9 9 8 9 7 5 8 9 8 7 8 8 10 11 6 8
21 20 19 20 20 21 20 19 19 19 18 16 14 11 10 12 13 14 12 8 5 5 8 8 7 6 4 3 3 5 7 4 3 5 7 7 9 10 11 12 9 9 8
21 21 18 17 17 20 19 19 19 16 11 9 11 11 11 12 10 7 4 2 2 5 8 8 7 6 5 5 7 9 8 8 9 8 8 7 8 9 11 10 10 7 7
20 15 13 12 12 13 14 13 13 14 14 13 11 11 13 13 11 6 5 5 8 7 7 6 5 5 7 8 8 6 5 2 2 3 7 8 9 9 9 9 10 7 4
12 15 14 10 9 9 9 9 8 7 9 18 13 10 6 4 6 7 4 6 8 8 7 7 5 6 2 3 3 5 6 4 2 7 9 9 9 9 9 10 10 10 10
8 7 2 5 9 8 6 7 10 10 10 13 10 4 3 5 4 7 6 6 7 7 7 6 7 5 3 6 6 6 6 4 6 8 9 10 10 10 9 10 11 12 11
5 5 13 7 5 3 10 8 5 1 4 3 9 5 6 3 4 5 5 4 5 5 6 5 6 6 5 3 3 4 8 6 7 8 10 11 11 11 9 9 10 10 10
2 4 11 8 8 8 6 5 4 5 7 6 7 12 6 2 2 2 2 4 3 3 3 2 4 4 5 5 6 7 7 10 5 7 6 7 10 10 9 11 10 10 10
14 2 5 16 14 9 7 9 11 6 4 5 7 3 1 1 1 5 0 2 2 2 1 4 4 6 8 8 8 5 3 3 4 4 9 5 10 10 9 10 10 11 11
16 3 4 10 11 11 14 14 9 6 5 6 5 4 4 3 3 2 1 1 2 4 4 3 4 6 6 6 3 3 3 5 9 8 7 4 3 8 11 9 10 11 12
13 3 7 10 5 6 9 6 5 6 6 7 6 5 5 5 5 4 3 3 4 2 3 2 3 4 2 3 5 6 6 6 6 7 6 2 5 8 8 8 10 11 13

GFSGL_925_spd_009.txt.gz
Wind_Speed
8 8 8 9 9 9 12 14 14 13 14 11 8 4 4 7 13 17 18 16 15 15 14 15 14 11 8 12 9 9 5 3 4 3 7 8 12 14 12 9 11 14 15
9 9 8 7 7 6 8 10 9 12 12 12 10 13 12 13 15 15 15 12 13 15 13 14 10 11 6 12 17 13 7 3 3 8 8 7 5 6 7 6 9 11 15
10 8 7 3 2 2 4 6 6 8 9 12 14 13 12 15 18 18 19 20 21 22 21 19 16 11 10 9 15 20 22 19 12 2 5 8 9 5 13 10 9 11 11
10 8 6 4 2 2 3 3 5 7 11 13 14 15 15 16 19 22 23 20 18 16 14 13 12 13 10 4 5 8 14 15 16 10 7 7 2 10 18 20 14 11 13
12 10 8 6 5 8 8 6 8 9 10 13 14 14 14 13 13 12 10 9 7 5 3 1 2 3 7 5 3 5 5 5 6 5 4 1 2 4 4 8 14 14 11
14 15 11 12 10 9 9 11 11 10 11 13 13 12 12 14 10 9 9 9 9 8 10 9 8 6 5 5 8 7 4 1 3 5 2 11 11 8 6 6 16 11 5
13 16 18 16 13 11 12 16 19 19 17 17 14 11 12 11 10 9 10 12 12 11 12 12 11 12 15 10 8 13 15 14 5 11 19 15 17 12 10 12 11 10 6
9 17 20 18 15 18 22 25 25 22 20 17 15 13 13 11 8 10 15 15 15 15 12 11 10 9 12 13 17 23 25 26 22 22 20 18 15 11 9 9 8 7 6
2 12 16 24 26 25 26 23 23 23 21 19 18 18 16 17 14 16 18 20 21 19 18 17 17 20 14 13 17 21 23 22 19 18 17 16 13 12 11 6 15 12 7
15 21 24 28 29 30 27 25 22 22 22 19 19 19 21 20 17 14 14 18 21 22 21 22 21 18 18 17 19 19 21 14 10 10 12 14 13 13 13 12 10 13 9
20 25 27 28 30 31 28 24 22 21 21 21 22 22 23 23 17 16 17 18 20 21 21 21 20 16 17 16 14 13 12 10 9 11 11 10 9 16 14 14 12 6 1
23 28 29 30 29 28 27 23 20 22 25 24 24 24 22 22 20 18 15 15 15 19 18 15 12 9 8 9 11 10 7 8 8 12 14 13 9 6 8 5 4 5 3
26 27 28 27 26 25 26 24 24 24 25 22 22 22 19 19 19 16 15 13 13 16 15 16 16 15 14 14 12 10 8 8 12 13 13 12 10 8 8 8 5 6 3
29 29 30 29 27 28 26 23 25 23 20 21 20 19 18 16 18 18 19 17 19 19 17 14 12 11 13 11 11 9 12 13 12 11 11 10 10 10 10 8 6 7 8
26 28 25 25 28 31 29 25 24 21 18 20 16 15 15 13 12 12 11 10 11 10 8 6 6 5 6 6 8 12 10 9 10 13 10 11 11 11 11 11 9 9 7
24 23 24 26 27 31 31 28 22 20 18 16 14 13 14 13 12 12 11 10 8 9 10 13 13 10 8 8 8 6 8 12 9 10 10 10 10 11 11 13 11 8 8
32 29 28 27 27 28 29 28 25 18 16 15 13 13 14 16 15 13 10 7 6 10 11 11 8 6 4 2 6 10 12 11 7 7 8 7 9 9 11 13 12 7 8
21 23 25 26 27 29 28 27 25 22 19 15 13 13 14 13 11 9 8 4 3 6 13 12 9 10 13 12 10 8 7 6 9 5 9 10 11 11 12 13 11 11 8
23 22 22 21 19 23 24 22 20 22 21 19 17 15 12 10 8 7 8 7 8 9 11 10 8 7 3 4 5 5 5 3 3 6 10 11 11 10 12 11 12 13 8
11 12 15 17 21 24 21 19 19 21 22 17 15 14 12 8 4 2 2 5 11 11 11 8 7 3 4 5 4 3 8 5 4 9 9 10 11 11 11 10 11 13 13
16 11 9 7 13 14 14 15 14 22 19 17 13 14 9 6 6 3 9 10 8 8 6 2 8 1 11 8 5 3 7 9 10 7 4 7 9 14 7 7 7 12 11
10 10 9 15 12 12 14 12 9 8 25 19 12 8 10 3 12 12 9 9 8 5 5 2 4 6 7 5 5 1 6 10 7 5 3 7 5 11 9 8 11 11 7
4 4 15 13 12 14 11 8 6 7 6 15 14 14 11 7 10 10 9 8 6 4 1 2 3 10 9 6 5 3 4 8 5 1 3 8 2 8 7 7 12 9 9
5 9 16 14 13 14 14 10 8 6 3 16 17 13 12 10 8 7 7 5 2 4 5 6 4 2 3 2 4 4 3 2 2 6 7 3 2 1 6 13 6 8 9
10 11 4 16 16 17 18 13 14 13 12 9 13 13 11 10 9 7 10 7 3 4 8 7 4 2 3 1 2 3 4 6 6 5 4 1 3 2 7 6 6 10 12
9 16 6 5 14 17 17 18 14 18 16 12 12 12 11 10 9 13 11 8 5 8 7 5 4 2 2 1 4 3 2 3 3 5 3 6 3 1 6 7 8 10 12

GFSGL_925_spd_015.txt.gz
Wind_Speed
10 8 6 5 5 8 9 11 12 11 11 10 8 4 4 6 9 10 11 10 11 15 20 22 17 16 14 11 7 4 3 4 4 4 5 7 6 3 5 11 14 13 9
12 9 8 4 3 6 7 9 9 11 11 12 11 11 9 7 7 7 9 7 11 16 17 16 18 17 16 13 8 6 3 2 6 2 3 6 9 10 11 10 7 6 4
14 12 8 5 3 5 6 7 9 10 13 15 15 17 17 17 16 14 12 12 12 13 15 15 16 13 13 13 11 9 9 8 5 3 1 3 4 4 5 7 7 6 4
13 11 8 6 3 4 6 7 9 11 13 17 19 18 18 17 16 15 15 15 14 13 11 12 13 14 14 12 11 9 7 4 5 8 7 7 5 6 7 9 8 8 6
14 12 10 7 7 7 8 9 11 12 14 15 18 20 21 21 19 19 20 19 17 17 15 13 10 8 8 6 4 5 5 5 6 6 4 4 3 5 5 6 9 8 8
14 13 13 12 12 11 13 12 11 12 13 14 15 17 19 16 12 12 12 13 13 13 13 12 10 9 9 8 5 2 3 5 6 5 4 2 2 2 4 8 15 10 4
17 14 13 18 17 16 14 13 12 12 11 12 13 14 16 15 13 13 14 17 17 16 14 13 13 12 12 14 14 12 8 1 4 4 4 4 2 2 2 2 12 12 6
16 15 13 18 18 18 16 16 15 13 13 13 13 13 14 12 10 13 14 15 16 14 12 12 15 16 16 18 21 24 26 24 21 18 16 15 11 7 6 7 8 12 13
5 14 21 22 20 20 18 16 15 13 14 15 14 15 16 14 10 12 14 16 16 17 16 15 15 16 15 16 20 23 23 22 19 20 21 20 19 14 9 10 11 7 5
3 11 23 25 24 23 20 18 16 14 15 16 15 17 17 16 11 10 12 17 20 22 22 20 16 15 13 13 15 15 18 14 12 12 14 15 15 14 13 13 11 11 6
5 14 21 23 23 23 22 19 18 17 17 17 18 18 18 15 12 10 12 19 23 24 24 22 20 16 15 14 13 12 13 9 10 11 13 13 14 15 15 16 15 13 9
11 15 19 19 21 22 24 22 19 18 20 21 22 22 19 17 14 13 14 17 18 21 20 17 14 12 14 14 14 14 14 14 15 13 14 15 15 14 12 8 8 4 4
16 16 17 19 20 20 21 21 19 19 20 20 21 22 19 17 17 15 16 15 16 18 18 18 17 16 17 18 16 15 14 15 15 16 15 15 14 13 9 7 7 5 3
19 19 19 20 22 17 18 17 17 18 18 17 18 18 18 17 17 17 18 19 20 20 17 16 17 18 17 17 15 14 14 15 16 15 14 12 11 11 12 8 6 6 6
22 21 22 21 22 21 19 17 15 12 13 17 18 19 21 20 19 19 18 17 15 14 13 13 13 13 13 14 15 15 14 13 14 12 11 11 12 13 12 11 9 9 11
24 22 23 24 25 25 25 23 18 16 14 13 14 16 18 18 16 15 13 12 13 15 13 13 12 10 9 8 8 9 9 9 10 9 9 10 10 11 11 10 10 9 9
24 24 25 25 24 24 23 23 23 16 15 13 13 14 15 18 15 13 11 10 10 10 11 11 10 7 5 8 7 7 8 7 6 9 9 8 8 8 9 9 10 8 7
23 24 24 24 23 22 20 20 20 20 18 16 14 15 16 14 11 8 7 7 7 7 7 6 6 8 9 5 4 5 6 9 8 6 6 6 6 7 7 8 10 11 8
24 23 22 21 19 18 18 18 17 18 19 20 18 16 13 10 7 5 7 8 9 9 8 8 10 9 6 6 4 2 2 6 4 3 4 4 5 5 5 6 8 9 7
18 20 19 19 18 16 15 15 15 15 16 17 17 16 13 10 9 8 8 9 7 8 9 8 9 7 6 5 1 2 1 5 7 4 2 3 5 4 4 6 7 7 4
16 16 18 17 17 16 16 15 14 13 13 13 13 14 12 10 7 5 4 7 6 6 6 4 7 8 9 8 5 4 4 5 8 4 2 2 4 4 3 4 6 5 4
13 15 18 19 19 19 19 17 16 16 14 13 13 13 11 9 9 11 11 11 9 6 3 4 5 6 9 8 7 6 5 6 9 8 5 4 6 3 2 3 4 3 3
15 16 21 25 28 25 25 23 23 22 21 19 17 16 17 15 13 14 15 14 11 9 6 6 7 7 11 10 9 9 11 11 10 8 6 7 8 4 2 1 0 3 5
17 20 19 23 22 21 21 22 25 24 22 25 23 20 20 20 19 19 18 15 13 12 10 10 9 9 12 9 8 6 6 8 9 9 9 10 6 5 3 2 1 4 5
3 2 12 21 20 22 22 23 23 21 23 25 26 24 24 23 23 23 21 18 15 14 14 14 15 14 10 6 3 4 6 8 10 10 9 7 7 7 4 1 2 4 5
4 4 5 10 17 20 19 21 22 23 25 26 25 28 26 28 26 26 24 22 21 17 18 16 18 17 13 10 6 2 4 6 6 6 7 7 10 8 5 5 5 4 5

GFSGL_925_spd_021.txt.gz
Wind_Speed
7 5 4 4 4 5 6 8 10 10 11 11 11 6 1 2 2 4 4 4 5 6 9 9 11 11 12 13 15 15 12 8 4 2 3 4 4 3 2 4 7 7 7
7 6 5 2 2 4 6 8 9 11 12 13 14 11 8 5 2 2 2 1 1 1 2 4 6 10 12 13 12 12 12 10 11 7 4 3 1 3 5 6 8 8 6
8 7 5 2 1 2 4 7 9 10 13 13 15 17 15 14 13 11 9 9 7 6 5 4 2 7 11 13 13 10 8 5 5 3 1 0 2 3 6 10 10 11 11
8 6 6 4 1 1 4 6 10 12 14 15 15 15 15 13 13 12 12 13 13 12 10 8 7 6 7 5 5 4 4 4 2 0 1 2 2 3 4 6 7 8 10
9 9 8 5 4 3 4 7 9 10 13 13 13 14 14 17 15 14 14 15 16 16 15 14 12 9 7 6 4 3 3 4 4 5 5 8 11 7 7 1 7 10 13
10 10 8 7 7 6 6 7 8 10 12 11 12 12 13 13 8 9 11 13 13 14 15 16 14 12 11 9 7 6 5 5 5 6 7 8 10 7 5 4 11 5 4
10 9 9 9 11 10 9 7 8 9 13 13 11 11 12 13 10 11 12 14 14 14 13 13 14 15 15 15 19 18 17 13 12 10 11 8 7 9 6 6 6 6 5
12 11 10 12 12 13 12 11 10 8 11 13 11 10 13 14 11 11 12 14 15 16 16 15 15 14 15 15 17 21 22 22 20 18 16 14 13 12 10 9 11 14 12
8 14 15 15 17 18 15 11 10 9 11 13 11 10 11 12 9 9 12 14 15 16 15 14 14 14 13 14 14 16 17 18 20 21 20 19 17 13 8 6 5 1 6
4 8 12 18 19 18 17 12 10 10 12 14 13 11 11 11 9 8 11 12 14 15 15 16 15 13 10 10 11 11 13 12 11 12 13 14 16 17 17 15 10 7 4
3 3 13 20 21 20 18 14 13 13 14 16 14 12 11 9 9 7 9 10 12 14 13 12 13 11 11 10 11 11 12 13 14 15 13 13 14 16 15 14 12 10 7
2 3 9 15 20 20 18 18 15 14 12 13 14 15 12 11 9 8 8 10 13 15 15 12 12 10 11 13 16 15 13 12 10 10 11 11 11 11 10 10 10 10 9
7 7 7 10 14 17 19 19 15 16 18 18 16 15 14 14 15 12 12 13 13 15 13 15 15 15 17 16 15 14 11 9 9 11 11 10 10 10 8 7 8 8 9
10 11 11 13 14 14 14 14 17 15 16 16 17 13 13 12 14 14 14 14 15 19 16 13 14 14 14 14 12 13 12 11 10 11 10 9 8 9 9 8 8 6 6
11 12 13 16 17 17 15 13 13 12 12 14 10 11 12 11 12 14 14 12 11 13 13 9 8 10 10 10 10 9 9 9 10 9 9 8 8 8 8 7 7 6 6
13 11 10 13 17 18 18 18 12 10 8 8 11 11 12 17 16 13 13 14 14 12 7 8 7 7 6 6 6 6 7 7 8 8 9 8 8 7 6 6 6 6 5
14 14 14 12 12 13 11 13 14 15 13 12 11 15 16 16 13 11 13 12 11 10 8 7 6 5 4 4 4 5 5 6 6 7 7 6 6 5 5 5 5 5 4
14 14 13 13 12 11 10 10 9 9 10 9 11 12 12 12 11 10 11 10 8 6 6 5 5 5 4 3 3 4 5 5 5 4 5 6 6 5 4 4 4 4 3
13 14 13 13 12 12 11 10 9 9 9 9 9 8 8 8 7 8 8 3 4 4 4 4 5 5 4 4 3 3 2 3 2 2 2 2 4 3 2 2 2 2 3
15 17 14 12 11 10 9 8 8 8 8 8 8 8 7 6 5 5 6 6 5 6 6 6 7 7 7 6 4 3 1 4 5 4 3 2 1 2 2 2 2 2 1
13 12 11 9 8 7 6 6 6 5 5 5 6 8 9 6 4 4 3 4 6 5 6 7 8 9 10 9 7 5 3 2 4 6 6 5 4 4 3 3 3 2 3
9 8 7 6 6 6 5 6 6 6 6 6 6 9 11 10 8 8 8 7 8 7 7 7 7 9 9 10 9 8 6 5 5 7 9 8 6 5 5 5 4 4 4
7 6 5 5 6 7 8 9 10 10 10 10 9 9 11 13 12 12 12 10 10 10 10 9 8 8 7 8 9 8 9 9 10 10 11 10 9 7 6 6 6 6 5
7 6 8 9 10 12 12 13 13 15 13 12 13 14 14 14 14 14 15 13 12 12 11 10 9 10 9 9 9 10 10 11 11 11 12 11 10 8 8 8 8 7 6
5 4 7 8 9 9 10 11 12 12 12 13 14 15 16 17 17 17 16 15 15 15 14 13 12 12 14 14 13 12 12 12 10 11 10 11 10 9 10 10 9 8 8
2 4 6 7 7 9 9 8 8 9 10 11 13 14 16 17 18 18 18 17 17 17 17 16 17 17 16 16 16 17 17 13 12 12 10 10 10 10 12 12 10 9 9

GFSGL_925_spd_027.txt.gz
Wind_Speed
12 9 6 4 5 5 6 8 9 10 13 15 16 13 12 12 11 11 13 11 7 2 3 6 7 7 9 9 8 9 9 8 8 2 1 2 4 4 4 4 4 5 5
10 8 6 4 7 5 7 6 8 10 12 14 14 14 13 14 14 14 12 13 13 12 10 9 9 4 2 2 1 2 1 1 1 1 3 3 3 4 6 6 8 11 14
9 9 6 4 8 6 5 5 7 9 12 14 14 14 14 13 14 15 16 16 16 16 15 15 14 10 8 7 5 3 3 1 3 4 4 4 4 4 9 10 12 13 13
10 9 7 6 8 6 3 4 7 9 11 13 12 13 13 15 14 13 14 16 17 17 16 16 14 13 11 11 10 9 7 9 8 5 6 8 5 4 5 6 9 10 12
10 9 8 6 7 5 3 5 7 8 8 10 10 11 11 11 11 12 13 14 16 16 15 16 16 13 11 9 7 8 8 9 10 11 11 9 7 6 4 3 8 9 12
11 10 9 7 7 6 4 5 7 7 8 8 9 10 10 11 12 13 11 11 12 13 13 13 14 18 19 16 13 11 8 7 8 9 10 9 7 5 3 5 8 3 3
11 10 9 8 11 7 6 7 7 6 6 8 8 9 10 11 13 12 11 11 12 12 12 11 12 13 13 14 18 19 21 17 15 13 11 9 8 5 6 6 4 5 4
9 8 13 12 14 9 8 8 8 7 6 7 7 8 9 10 12 13 13 11 12 13 13 13 12 11 13 12 13 16 17 17 15 13 12 11 10 10 8 7 8 11 9
5 5 3 9 14 12 11 11 9 8 7 8 7 7 7 8 9 7 9 8 10 11 11 13 10 10 10 9 9 11 12 13 16 16 16 15 11 6 4 5 4 6 7
1 1 2 5 15 14 12 12 11 9 9 8 7 9 9 6 7 5 5 5 6 9 10 10 10 9 7 8 7 7 8 7 7 7 8 10 10 12 10 12 9 1 9
1 0 1 5 11 14 15 13 12 11 10 9 9 8 7 6 3 4 3 6 3 5 6 7 8 8 6 5 8 7 7 6 6 5 3 5 5 7 8 9 10 8 10
3 6 7 10 11 14 15 11 11 13 12 11 10 7 6 6 6 4 4 6 8 5 6 6 7 8 8 10 9 10 5 2 3 3 4 5 6 6 7 7 9 9 9
8 7 10 11 11 11 14 11 12 13 15 11 10 9 8 8 9 7 8 8 8 8 8 11 12 11 11 10 8 5 4 2 3 3 4 4 5 5 2 3 5 6 9
9 8 12 13 13 11 10 11 11 11 9 11 11 9 9 7 8 6 7 9 9 11 9 4 3 4 5 5 2 5 5 4 5 4 3 3 3 3 4 4 3 2 1
10 10 13 14 16 16 15 12 11 9 9 13 10 10 7 5 5 6 6 5 4 6 7 5 5 3 2 2 2 3 3 2 3 3 2 2 2 2 3 3 3 2 2
11 11 12 13 13 14 16 18 14 11 9 8 9 6 6 5 8 8 6 6 5 8 4 4 3 1 0 1 1 1 2 1 2 3 3 3 3 4 4 2 3 3 3
11 13 14 13 12 12 12 12 13 12 9 6 5 7 9 10 9 7 6 6 6 5 8 2 2 1 1 1 2 2 2 3 2 3 2 2 3 1 5 2 2 2 1
12 13 11 10 10 10 9 10 10 10 9 8 8 8 8 7 6 6 6 6 5 5 9 2 2 2 2 2 2 2 2 1 2 3 2 2 3 4 4 4 3 2 4
9 10 10 10 10 10 9 8 7 6 8 10 7 5 5 6 5 6 6 6 13 4 2 2 3 3 4 4 2 4 4 5 4 4 5 4 4 6 4 6 3 2 4
11 12 13 12 10 9 8 8 8 6 5 5 7 9 8 6 7 7 8 9 8 5 4 5 5 5 6 6 6 5 7 7 6 8 9 7 5 6 7 6 7 7 8
15 10 8 8 8 7 6 6 5 4 4 4 4 4 7 9 10 7 8 7 6 7 6 6 7 8 7 8 9 9 9 10 8 8 9 9 8 8 8 8 8 9 9
11 9 6 8 7 3 3 2 0 0 0 0 4 7 7 10 9 6 6 7 7 7 8 6 8 9 9 10 8 9 10 12 11 9 9 10 11 10 11 11 10 11 11
8 6 5 4 3 2 6 4 5 5 6 4 4 7 8 6 9 9 10 9 9 10 9 9 10 10 9 9 9 11 13 12 11 10 10 11 12 13 13 13 12 13 12
5 4 2 10 6 4 7 6 7 7 10 13 8 2 9 7 8 8 9 11 12 12 12 13 12 12 11 10 10 11 12 12 12 10 9 12 15 16 15 16 15 15 14
6 6 4 3 4 4 11 9 7 10 9 10 6 8 11 14 13 11 12 15 15 15 17 16 16 16 16 15 15 14 12 12 12 14 12 15 16 17 18 17 15 16 16
2 3 7 10 7 7 8 9 11 9 7 6 7 9 12 11 14 15 14 16 21 19 18 18 20 20 19 19 20 20 20 21 20 20 16 15 16 18 18 18 18 19 19

GFSGL_925_spd_030.txt.gz
Wind_Speed
11 9 7 7 9 6 7 11 12 12 13 17 18 19 19 18 16 15 16 15 15 11 4 4 7 6 7 6 7 9 6 4 2 3 2 4 6 7 6 8 10 12 12
12 9 7 9 10 5 9 11 10 12 13 17 19 20 20 19 18 14 14 15 18 18 14 12 12 10 10 8 6 6 7 5 2 5 3 6 9 8 10 12 14 17 18
13 11 9 12 9 5 8 8 10 11 13 14 16 21 20 19 18 17 17 17 17 17 16 16 16 15 13 9 10 8 7 6 5 7 6 6 6 8 12 13 14 15 15
14 13 10 12 10 7 7 9 11 9 11 13 16 18 18 18 18 16 16 16 17 18 18 18 16 15 14 13 14 12 11 11 9 10 12 8 7 6 6 9 12 12 14
13 12 11 13 11 8 8 7 9 9 10 11 13 13 15 15 16 15 16 15 16 18 20 21 19 17 15 12 11 11 9 9 10 11 10 8 6 4 4 3 11 12 13
12 12 12 12 13 9 9 8 8 8 10 11 13 12 13 14 12 11 12 13 13 13 12 16 19 23 23 21 17 14 11 8 10 11 10 9 7 5 5 7 9 3 3
9 11 13 14 12 9 10 7 7 9 9 11 13 12 12 14 13 14 15 13 13 14 15 14 15 12 14 15 15 18 20 19 13 11 14 12 9 7 7 6 4 5 7
10 4 11 10 12 11 11 8 7 8 10 10 12 10 11 12 12 13 13 12 13 14 15 13 12 13 13 13 15 19 18 15 12 10 11 11 12 11 8 5 7 11 10
6 4 4 7 14 13 14 11 8 8 10 10 10 9 9 8 6 8 11 11 11 11 13 12 8 8 10 9 10 11 12 15 16 16 15 14 12 8 7 4 5 10 7
8 5 4 2 12 12 15 15 11 9 10 12 12 10 9 5 4 5 8 10 11 9 9 8 9 7 6 8 8 8 9 8 5 6 8 10 11 10 9 9 12 7 8
7 4 1 4 7 12 16 15 15 13 12 13 12 9 5 6 4 4 9 7 6 10 10 7 7 6 5 5 5 7 6 5 3 4 2 3 7 9 12 8 13 12 14
5 8 7 7 7 11 14 16 14 16 16 14 13 7 6 6 5 3 4 7 8 11 11 6 6 7 7 7 8 7 3 3 6 7 9 9 8 11 8 10 12 11 11
9 10 11 11 11 10 12 14 17 18 17 14 9 8 5 7 7 6 6 5 6 8 6 9 9 10 10 8 7 7 8 11 6 10 9 7 4 7 3 3 2 6 7
11 10 11 12 12 11 11 11 13 13 11 10 9 8 7 7 8 9 7 6 7 8 7 5 5 4 5 4 4 6 7 6 10 9 7 4 2 5 6 6 4 5 8
12 11 12 13 14 14 14 12 10 8 6 9 8 7 5 5 4 5 6 4 2 3 4 3 4 6 6 4 3 4 5 6 6 6 7 6 4 3 2 3 5 8 4
12 10 11 13 12 14 17 17 14 12 10 8 7 5 4 2 2 5 4 3 3 5 6 11 5 1 4 5 2 1 4 3 4 7 6 6 6 5 7 5 5 6 5
12 12 12 12 11 11 11 11 11 11 8 6 4 4 4 4 4 4 3 3 5 6 7 13 3 2 3 4 5 6 8 5 2 4 4 2 4 2 3 6 4 7 5
12 15 14 13 13 13 14 13 13 13 10 6 6 6 6 4 3 3 3 3 4 7 6 8 3 2 3 4 4 6 6 2 2 2 3 5 4 6 8 6 8 3 10
13 9 9 9 10 9 8 9 9 13 15 10 7 5 4 3 2 2 3 5 10 15 10 2 3 2 2 3 1 3 6 7 7 6 4 7 7 6 13 5 7 4 5
12 13 12 12 10 10 9 10 9 7 10 11 13 11 8 4 5 5 6 6 11 13 7 4 2 4 5 5 5 4 5 9 9 7 6 7 8 5 9 11 9 9 8
13 10 6 9 8 8 8 8 5 4 7 5 11 9 11 8 12 16 16 13 9 6 5 5 6 7 5 8 9 8 7 9 13 8 8 9 10 9 9 11 10 11 12
10 10 8 10 6 4 5 3 2 1 1 4 15 12 8 10 7 9 5 5 6 6 4 6 7 8 9 10 10 7 8 8 12 15 15 10 10 11 11 12 13 13 14
6 5 4 5 5 5 1 6 6 5 8 6 3 13 11 9 8 10 8 8 6 5 7 6 7 9 10 10 9 9 11 12 13 13 7 6 8 11 12 14 15 17 14
6 15 15 11 6 3 4 5 9 7 6 13 8 13 11 6 10 9 9 7 8 10 11 12 12 12 12 11 11 11 13 15 14 14 13 9 10 13 16 18 18 18 17
10 10 12 10 5 4 5 7 6 13 11 4 4 3 15 5 13 10 12 10 10 8 6 12 18 16 16 17 16 15 17 16 12 13 13 11 14 16 20 19 20 18 15
7 6 5 6 7 9 13 9 6 7 4 5 5 5 5 7 13 10 2 8 10 9 12 10 14 21 13 21 18 6 11 20 23 23 21 18 17 18 19 21 20 21 20

GFSGL_925_spd_036.txt.gz
Wind_Speed
16 15 14 14 12 11 14 12 9 9 11 10 11 14 14 15 15 16 17 18 18 16 14 10 8 8 10 9 9 11 13 14 7 8 17 12 10 8 8 8 9 11 12
17 16 14 13 15 12 13 10 6 11 12 11 12 16 18 17 17 20 20 19 19 17 16 18 19 17 14 10 9 9 7 7 11 14 14 10 14 12 12 13 13 12 12
19 19 18 16 16 15 13 10 8 11 13 10 14 18 18 19 18 19 20 21 21 20 20 21 17 15 15 14 12 10 8 9 17 16 11 15 16 14 14 12 11 10 11
23 25 21 20 18 17 15 11 9 9 11 10 13 16 17 19 21 21 22 23 24 23 22 20 19 18 16 14 14 12 11 14 17 18 16 13 11 11 10 12 11 11 12
25 25 22 20 19 17 16 14 12 11 10 9 13 13 13 15 15 16 20 22 24 25 24 25 22 17 14 12 12 10 10 14 15 16 12 10 10 12 8 7 13 13 11
24 25 23 22 21 18 16 14 12 12 9 9 12 13 13 13 11 11 12 14 17 18 18 18 18 17 17 16 13 12 12 11 12 12 10 11 6 7 9 15 16 7 3
23 26 27 27 26 23 20 18 13 11 10 10 12 12 14 13 11 12 13 16 15 14 17 16 19 17 14 13 13 14 14 12 10 8 11 7 6 5 9 12 7 3 4
25 27 29 29 25 24 22 19 16 13 9 10 11 10 11 11 10 8 8 11 13 13 13 14 13 15 16 15 16 17 16 14 13 13 12 12 9 5 4 4 4 9 11
18 14 16 23 27 27 25 21 20 17 12 10 9 9 8 9 8 8 6 9 12 12 11 11 12 9 10 10 12 15 16 17 15 14 14 12 9 7 5 6 12 13 4
5 7 13 22 27 28 24 22 21 18 16 14 10 6 5 5 4 8 6 9 11 10 10 9 8 9 6 3 6 7 9 9 9 9 7 9 11 8 5 2 5 14 5
7 6 5 14 23 26 24 22 22 20 19 16 11 7 5 6 8 8 8 5 8 8 8 7 7 6 6 7 5 6 5 4 3 3 5 7 8 11 10 5 6 1 10
7 6 7 9 21 26 24 23 21 21 20 15 11 8 7 7 7 8 5 10 8 5 6 8 8 8 10 11 10 11 6 1 3 8 10 6 3 6 7 8 9 9 8
13 11 12 14 17 21 23 23 23 21 18 14 10 10 8 7 7 9 10 11 7 6 9 11 9 9 10 10 11 8 11 12 12 10 7 4 4 4 2 2 1 2 3
19 17 16 17 17 17 19 19 21 19 16 12 10 10 8 8 8 9 9 8 8 9 9 8 7 7 6 5 5 7 8 10 10 9 6 3 1 2 2 3 3 4 6
18 17 18 18 18 18 18 15 15 13 9 10 9 10 10 8 7 7 7 7 7 7 6 4 3 2 1 1 1 3 5 4 4 5 6 6 5 3 2 3 3 3 4
19 18 18 19 20 20 20 18 14 11 10 9 9 7 7 7 6 5 4 4 5 3 2 5 7 3 4 2 5 3 4 4 3 2 3 3 3 5 5 4 5 5 3
19 19 20 20 19 20 18 18 18 13 10 8 6 6 5 5 5 4 3 3 3 2 1 4 3 8 10 9 8 6 4 0 1 1 2 3 4 5 6 10 8 6 5
18 20 21 21 20 19 17 16 14 14 12 9 8 6 6 5 4 4 3 4 4 3 1 4 2 7 9 5 1 1 2 0 4 5 4 5 5 5 6 7 9 6 8
18 18 17 17 17 17 16 15 13 12 11 10 8 7 6 5 4 3 4 6 3 1 5 4 5 8 8 5 5 5 4 6 6 5 7 9 10 7 7 8 7 7 8
13 15 15 16 17 16 15 14 12 11 11 10 9 8 9 7 5 5 7 7 4 2 3 3 3 7 8 8 8 8 7 8 8 9 8 10 10 9 10 11 11 10 9
13 14 12 13 19 20 20 19 16 15 13 12 10 8 7 8 7 5 4 6 6 7 3 8 6 5 3 5 9 7 9 10 10 11 10 12 12 13 15 14 14 14 14
13 15 9 8 13 20 19 17 19 18 17 17 15 13 9 9 10 9 9 9 12 15 15 11 10 7 4 5 7 7 9 10 11 12 12 12 14 16 14 15 14 13 13
10 9 6 15 18 14 10 5 6 8 9 12 16 18 17 14 11 11 10 10 10 11 14 15 13 6 3 5 7 10 11 12 13 15 16 17 17 16 13 14 15 14 13
8 10 17 14 12 9 5 4 4 2 4 6 7 14 19 16 11 15 14 11 2 5 6 8 6 3 1 1 1 2 5 8 9 12 18 21 21 21 21 20 19 18 18
18 19 15 12 10 9 7 4 3 3 1 5 4 4 7 7 12 14 15 15 13 12 10 7 4 3 2 5 8 10 14 16 18 19 17 15 15 17 23 23 24 22 19
17 16 14 10 8 8 4 3 3 9 12 18 23 22 21 21 20 19 17 15 14 12 10 9 8 8 8 10 12 15 16 17 18 18 19 19 21 20 21 25 25 28 27

GFSGL_925_spd_042.txt.gz
Wind_Speed
14 13 14 12 10 9 8 8 8 8 8 10 12 12 15 16 14 13 15 14 14 12 10 8 7 2 5 7 7 6 7 7 7 4 7 9 7 5 6 7 8 10 11
10 10 11 10 9 8 7 8 8 10 10 11 13 14 16 18 17 20 21 18 16 17 16 14 12 6 6 2 2 5 7 8 6 8 11 6 10 9 10 11 12 12 13
15 13 14 12 10 8 8 6 7 8 10 13 16 17 18 18 19 20 19 19 20 19 17 17 16 15 14 10 6 3 2 8 7 10 8 8 11 10 11 11 10 9 11
11 17 17 15 12 9 9 7 6 6 9 12 14 16 18 19 21 20 21 21 20 19 17 17 17 16 14 12 11 9 8 7 6 13 11 12 9 9 8 10 10 9 10
13 16 15 14 11 9 8 6 6 6 7 9 11 13 13 16 18 18 19 20 19 19 19 18 17 15 13 11 10 11 9 10 11 13 13 9 8 8 5 4 8 9 7
15 16 14 13 10 8 6 6 6 6 7 7 9 11 11 11 11 12 14 16 17 17 16 16 16 15 13 14 14 12 11 9 11 10 8 5 6 4 5 8 10 3 1
13 14 14 13 13 9 3 4 4 4 5 7 8 10 12 12 9 9 10 12 13 16 16 15 16 14 13 13 14 14 15 13 10 8 10 7 4 2 6 9 5 2 2
12 12 14 13 12 8 6 8 7 6 6 7 8 9 11 11 9 9 8 9 11 12 12 13 14 15 15 12 12 15 16 16 14 11 10 9 7 5 4 3 4 2 8
20 19 19 14 14 16 10 15 12 10 8 9 8 8 8 9 7 6 6 9 10 11 11 9 9 10 11 10 10 13 15 16 14 14 13 11 8 5 2 2 4 7 2
15 17 19 17 18 17 20 22 20 14 11 10 8 7 6 6 7 5 5 7 10 10 9 9 8 5 6 7 5 7 11 10 9 9 11 11 9 7 5 3 4 5 1
5 7 9 11 18 19 18 22 21 17 13 12 9 8 6 4 8 8 5 4 7 7 8 10 9 8 8 7 6 4 5 5 4 4 6 7 7 8 9 9 9 2 6
2 2 1 2 9 13 20 23 24 20 18 15 11 9 7 6 6 7 6 4 4 5 7 10 11 9 9 9 10 7 0 2 2 2 3 4 4 4 5 5 6 7 5
3 2 1 2 5 12 18 22 25 23 20 16 12 9 7 6 6 5 9 8 5 6 10 10 10 8 9 10 10 10 10 9 8 5 3 4 4 4 4 6 5 4 3
2 3 3 3 7 15 19 23 24 22 21 16 13 11 9 8 8 8 9 9 9 9 8 8 7 7 7 7 7 7 7 7 6 6 6 6 6 5 5 6 6 7 6
5 6 6 7 10 14 16 17 18 18 17 16 12 10 11 9 9 9 8 9 9 9 8 6 5 3 2 2 3 3 3 3 4 5 6 7 6 6 7 7 7 7 6
7 7 8 11 13 15 17 18 14 12 10 7 8 8 9 8 10 9 9 9 9 8 5 3 2 2 3 3 3 4 3 3 6 8 7 6 6 7 6 7 6 5 5
8 9 10 10 11 14 15 17 18 13 11 10 9 9 7 10 9 7 7 7 7 6 4 3 4 3 1 0 1 2 2 3 5 8 8 6 6 7 6 6 7 6 4
6 8 9 10 11 12 12 13 14 15 13 10 9 7 8 8 8 7 7 7 7 6 4 3 4 4 5 4 4 4 4 4 5 6 6 6 5 8 7 6 6 6 6
10 11 12 13 13 12 12 13 12 10 9 10 10 9 9 9 8 7 6 7 9 7 5 5 6 7 7 8 7 7 6 7 7 8 8 8 9 7 7 7 8 9 9
14 15 16 16 15 14 14 13 12 11 10 10 10 10 9 8 8 8 8 9 7 5 2 2 2 4 6 7 8 9 9 9 9 10 10 9 9 10 10 11 11 11 10
16 15 14 13 13 12 12 11 11 10 9 8 7 8 7 6 8 9 9 6 5 5 5 4 4 4 5 7 8 8 9 10 10 11 11 11 12 13 12 14 15 15 15
16 15 14 13 12 12 12 11 9 9 9 8 7 7 7 8 7 7 7 6 6 8 10 11 11 10 10 10 9 9 9 10 11 11 11 12 14 16 17 19 18 17 15
15 16 16 16 16 15 15 15 14 14 15 15 13 13 14 13 12 11 9 9 10 10 9 10 13 13 10 8 6 8 8 7 8 9 11 13 15 15 15 15 15 15 14
16 17 18 18 16 15 14 14 13 14 15 13 12 13 17 18 16 11 10 10 9 8 6 5 7 7 6 5 3 3 5 7 9 10 11 13 14 15 15 14 13 13 13
17 19 19 17 17 17 15 15 14 12 11 11 11 10 10 13 15 13 9 7 7 6 6 5 5 4 3 1 2 4 7 11 13 13 11 11 11 11 11 10 10 10 10
18 20 21 18 17 16 15 15 15 13 12 11 11 11 11 13 12 11 9 8 8 8 7 5 4 2 1 3 5 7 9 10 10 11 9 9 9 10 9 9 10 9 9

GFSGL_925_spd_045.txt.gz
Wind_Speed
14 15 14 13 11 9 11 13 12 10 9 10 12 12 12 9 8 11 12 14 15 14 12 10 8 4 3 2 1 2 4 5 7 4 8 10 8 8 10 11 11 12 11
13 15 13 11 10 11 12 14 12 11 10 11 11 12 10 9 11 13 13 13 14 15 17 15 13 9 8 7 4 2 0 2 6 8 11 7 11 10 12 13 13 12 13
13 12 11 11 9 11 12 12 12 11 11 12 12 12 12 12 15 14 14 15 15 16 16 17 17 14 13 10 8 6 5 4 4 10 10 10 12 11 12 12 11 10 11
11 12 11 9 7 8 10 12 12 10 10 10 11 12 12 14 15 15 15 16 16 17 18 18 17 16 13 12 11 11 9 9 8 12 14 12 9 8 8 10 10 8 9
12 12 11 9 8 8 7 9 11 9 9 9 9 9 10 11 11 12 13 14 15 16 16 16 18 17 15 14 11 10 9 10 10 11 10 9 8 7 4 4 7 6 6
16 14 14 14 11 9 8 8 10 10 8 6 6 6 7 8 11 12 12 13 14 14 14 15 15 16 18 18 17 15 12 10 10 9 7 6 5 3 4 4 7 2 1
7 11 15 15 15 11 9 9 7 11 9 6 5 5 8 7 7 8 11 11 13 14 15 14 15 14 14 13 15 17 19 17 14 11 11 8 5 2 3 5 3 1 1
9 13 15 19 18 14 10 10 10 11 10 8 6 6 6 9 8 6 8 10 11 12 12 13 14 15 15 12 12 15 16 16 14 12 12 10 8 6 5 2 2 1 3
11 15 17 18 17 15 13 13 11 9 9 9 8 8 7 8 7 5 6 8 10 12 10 10 10 11 12 11 11 13 13 14 15 16 15 13 10 7 4 2 0 2 1
11 17 19 18 17 16 18 12 6 8 9 9 9 7 6 6 6 5 5 7 9 8 9 9 7 7 8 8 8 9 10 8 8 8 9 10 11 11 9 6 4 6 5
10 14 13 12 18 18 17 11 11 14 11 11 11 8 6 6 8 6 5 5 7 7 7 7 9 9 9 9 7 6 5 4 5 5 6 6 7 7 7 8 9 6 6
12 9 9 8 9 15 18 16 16 20 17 15 13 10 7 5 9 9 7 5 5 7 9 11 11 10 10 10 11 7 3 2 2 2 3 5 5 5 5 5 5 4 4
9 7 5 5 8 12 17 21 25 26 23 20 16 12 9 6 7 9 8 6 6 8 10 11 11 11 11 11 12 12 11 8 6 5 5 5 5 5 4 4 4 5 5
7 6 4 5 5 9 18 23 26 26 24 22 18 14 11 10 9 10 10 9 10 10 10 10 8 8 8 9 8 8 7 7 7 6 6 6 6 6 5 5 6 7 7
9 7 6 6 7 12 16 17 22 23 23 23 18 15 14 11 10 10 11 11 11 9 11 8 5 4 3 3 4 4 4 4 5 6 6 6 6 6 6 7 7 7 7
9 8 9 11 12 13 16 16 14 15 14 12 11 11 12 11 11 10 10 10 9 10 6 5 4 4 5 5 4 4 4 4 6 7 6 5 6 7 8 7 7 6 7
9 11 12 12 13 16 17 21 23 16 13 13 13 12 11 14 13 11 10 9 9 8 5 5 6 5 4 3 3 3 4 3 4 6 7 6 6 7 8 6 7 7 7
7 10 10 11 11 11 11 12 13 14 14 11 11 11 12 11 10 9 9 8 6 6 4 6 6 5 4 2 1 0 1 1 3 5 6 7 6 8 8 6 6 7 8
8 9 10 11 10 11 11 12 11 11 12 12 10 10 10 10 9 8 8 6 7 8 6 5 4 4 3 3 3 2 3 3 3 5 5 6 6 7 7 6 7 8 9
8 11 11 12 13 11 11 11 11 12 11 11 10 9 10 9 8 7 7 8 8 7 6 4 4 3 4 3 3 3 3 4 5 6 6 7 7 7 8 9 10 11 12
9 11 12 11 12 14 14 13 12 11 11 9 9 9 11 8 8 9 10 10 9 7 6 6 5 5 5 6 5 5 5 5 7 8 9 10 10 11 11 12 13 14 15
11 11 11 11 12 12 11 11 10 9 9 9 8 9 11 8 8 10 11 10 8 7 7 7 7 7 6 6 6 6 7 7 6 7 8 9 10 11 12 14 15 17 18
13 12 12 10 10 10 9 8 9 8 8 8 8 9 12 12 12 12 11 9 8 6 7 7 7 8 7 8 7 5 3 3 4 5 7 9 10 12 13 15 17 18 18
13 12 12 12 12 11 10 11 10 10 9 9 9 11 13 14 14 12 13 13 11 9 7 5 5 5 5 4 3 3 3 5 5 5 8 9 12 13 14 15 16 16 17
13 12 13 13 12 11 11 11 10 9 7 8 9 8 8 9 12 12 11 10 10 6 6 6 5 5 5 4 3 4 5 8 10 10 7 7 8 9 9 11 11 13 13
14 14 14 13 11 11 12 12 11 9 9 8 7 7 7 8 8 11 13 11 9 8 8 6 6 5 4 3 5 7 8 8 7 5 2 3 4 5 6 7 8 9 9